Weather History for Augusta, ME

Change the Weather History Date:

Monday, February 18, 2013

  Actual Average Record
Temperature  
Mean Temperature 19 °F -  
Max Temperature 28 °F 30 °F 48 °F (2008)
Min Temperature 10 °F 14 °F -4 °F (2014)
Degree Days  
Heating Degree Days 46    
Moisture  
Dew Point -1 °F    
Average Humidity 42    
Maximum Humidity 54    
Minimum Humidity 34    
Precipitation  
Precipitation 0.00 in - - ()
Sea Level Pressure  
Sea Level Pressure 29.73 in    
Wind  
Wind Speed 17 mph (WNW)    
Max Wind Speed 28 mph    
Max Gust Speed 46 mph    
Visibility 10 miles    
Events      
Averages and records for this station are not official NWS values.
T = Trace of Precipitation, MM = Missing Value Source: NWS Daily Summary

Daily Weather History Graph

Daily Weather History Graph

Search for Another Location

Airport:

Trip Planner

Search our weather history database for the weather conditions in past years. The results will help you decide how hot, cold, wet, or windy it might be!

Date:

Astronomy

Feb. 18, 2013 Rise Set
Actual Time 6:34 AM EST 5:12 PM EST
Civil Twilight 6:04 AM EST 5:42 PM EST
Nautical Twilight 5:30 AM EST 6:16 PM EST
Astronomical Twilight 4:57 AM EST 6:49 PM EST
Moon 10:49 AM EST (2/18) 1:16 AM EST (2/18)
Length of Visible Light 11h 38m
Length of Day
10h 38m
First Quarter, 58% of the Moon is Illuminated
Feb 18
First Quarter
Feb 25
Full
Mar 4
Last Quarter
Mar 11
New
Mar 19
First Quarter

Hourly Weather History & Observations

Time (EST) Temp. Windchill Dew Point Humidity Pressure Visibility Wind Dir Wind Speed Gust Speed Precip Events Conditions
12:53 AM 16.0 °F 1.1 °F -0.0 °F 49% 29.44 in 10.0 mi WNW 15.0 mph 32.2 mph N/A   Overcast
1:53 AM 15.1 °F 1.8 °F -2.0 °F 47% 29.47 in 10.0 mi WNW 11.5 mph 27.6 mph N/A   Partly Cloudy
2:53 AM 15.1 °F -1.6 °F -0.9 °F 49% 29.48 in 10.0 mi WNW 18.4 mph 26.5 mph N/A   Clear
3:53 AM 14.0 °F -4.7 °F -2.0 °F 49% 29.51 in 10.0 mi WNW 23.0 mph 46.0 mph N/A   Clear
4:53 AM 12.9 °F -4.9 °F -0.9 °F 54% 29.55 in 10.0 mi WNW 19.6 mph 29.9 mph N/A   Clear
5:53 AM 12.0 °F -6.0 °F -2.9 °F 51% 29.57 in 10.0 mi West 19.6 mph 38.0 mph N/A   Clear
6:53 AM 10.9 °F -8.8 °F -4.0 °F 51% 29.60 in 10.0 mi WNW 23.0 mph 38.0 mph N/A   Clear
7:53 AM 12.9 °F -5.3 °F -2.9 °F 49% 29.64 in 10.0 mi WNW 20.7 mph 33.4 mph N/A   Clear
8:53 AM 14.0 °F -3.9 °F -2.9 °F 47% 29.68 in 10.0 mi WNW 20.7 mph 36.8 mph N/A   Clear
9:53 AM 17.1 °F 1.0 °F -2.0 °F 43% 29.72 in 10.0 mi NW 18.4 mph 35.7 mph N/A   Clear
10:53 AM 19.0 °F 5.0 °F -0.0 °F 43% 29.74 in 10.0 mi NW 15.0 mph 41.4 mph N/A   Clear
11:53 AM 21.9 °F 6.9 °F 1.0 °F 40% 29.74 in 10.0 mi WNW 19.6 mph 35.7 mph N/A   Clear
12:53 PM 25.0 °F 10.9 °F 3.0 °F 39% 29.72 in 10.0 mi WNW 19.6 mph 40.3 mph N/A   Clear
1:53 PM 27.0 °F 13.9 °F 3.9 °F 37% 29.74 in 10.0 mi WNW 18.4 mph 32.2 mph N/A   Clear
2:53 PM 28.0 °F 14.6 °F 3.0 °F 34% 29.76 in 10.0 mi WNW 20.7 mph 32.2 mph N/A   Clear
3:53 PM 27.0 °F 11.3 °F 1.9 °F 34% 29.79 in 10.0 mi WNW 27.6 mph 39.1 mph N/A   Clear
4:53 PM 25.0 °F 10.9 °F 1.9 °F 37% 29.83 in 10.0 mi WNW 19.6 mph 35.7 mph N/A   Clear
5:53 PM 23.0 °F 8.0 °F 1.0 °F 39% 29.87 in 10.0 mi WNW 20.7 mph 36.8 mph N/A   Clear
6:53 PM 21.9 °F 8.7 °F -0.0 °F 38% 29.90 in 10.0 mi WNW 15.0 mph 23.0 mph N/A   Clear
7:53 PM 21.0 °F 8.6 °F -2.0 °F 36% 29.92 in 10.0 mi WNW 12.7 mph 25.3 mph N/A   Clear
8:53 PM 19.9 °F 10.1 °F -2.9 °F 37% 29.96 in 10.0 mi West 8.1 mph - N/A   Clear
9:53 PM 19.0 °F 9.0 °F -4.0 °F 36% 29.97 in 10.0 mi WNW 8.1 mph - N/A   Clear
10:53 PM 18.0 °F 6.9 °F -5.1 °F 36% 29.98 in 10.0 mi West 9.2 mph - N/A   Clear
11:53 PM 18.0 °F 8.7 °F -5.1 °F 36% 30.01 in 10.0 mi West 6.9 mph - N/A   Clear